Terminal Aerodrome Forecast
Issued by NWS

Home | Current Version | Previous Version | Text Only | Print | Product List | Glossary On
Versions: 1 2 3 4 5 6 7 8 9 10 11 12 13 14
000
FTUS46 KMTR 182300
TAFSJC
TAF
KSJC 182330Z 1900/1924 32012KT P6SM FEW050 SCT150
     FM190300 34008KT P6SM SCT150
     FM190900 18004KT P6SM FEW015 SCT150
     FM191200 VRB03KT P6SM FEW015 SCT150
     FM191900 33010KT P6SM SCT150
     FM192200 31015KT P6SM SCT150=

USA.gov is the U.S. government's official web portal to all federal, state and local government web resources and services.